Time,TemperatureF,DewpointF,PressureIn,WindDirection,WindDirectionDegrees,WindSpeedMPH,WindSpeedGustMPH,Humidity,HourlyPrecipIn,Conditions,Clouds,dailyrainin,SoftwareType,DateUTC
2013-04-15 00:03:00,45.0,-99.9,30.19,NW,308,7.0,11.0,-999,-99.99,,,-99.99,,2013-04-15 04:03:00,
2013-04-15 00:13:00,45.0,-99.9,30.19,WNW,302,6.0,10.0,-999,-99.99,,,-99.99,,2013-04-15 04:13:00,
2013-04-15 00:23:00,45.0,-99.9,30.20,WNW,297,7.0,10.0,-999,-99.99,,,-99.99,,2013-04-15 04:23:00,
2013-04-15 00:33:00,45.0,-99.9,30.20,NW,306,9.0,11.0,-999,-99.99,,,-99.99,,2013-04-15 04:33:00,
2013-04-15 00:43:00,45.0,-99.9,30.20,NW,313,6.0,15.0,-999,-99.99,,,-99.99,,2013-04-15 04:43:00,
2013-04-15 00:53:00,45.0,-99.9,30.20,NW,317,8.0,12.0,-999,-99.99,,,-99.99,,2013-04-15 04:53:00,
2013-04-15 01:03:00,45.0,-99.9,30.19,NW,316,7.0,11.0,-999,-99.99,,,-99.99,,2013-04-15 05:03:00,
2013-04-15 01:13:00,45.0,-99.9,30.20,NW,322,7.0,9.0,-999,-99.99,,,-99.99,,2013-04-15 05:13:00,
2013-04-15 01:23:00,45.0,-99.9,30.20,NW,313,7.0,11.0,-999,-99.99,,,-99.99,,2013-04-15 05:23:00,
2013-04-15 01:33:00,45.0,-99.9,30.20,NW,318,6.0,11.0,-999,-99.99,,,-99.99,,2013-04-15 05:33:00,
2013-04-15 01:43:00,44.0,-99.9,30.20,NW,318,7.0,13.0,-999,-99.99,,,-99.99,,2013-04-15 05:43:00,
2013-04-15 01:53:00,45.0,-99.9,30.20,NW,323,9.0,13.0,-999,-99.99,,,-99.99,,2013-04-15 05:53:00,
2013-04-15 02:02:00,44.0,-99.9,30.20,NW,325,10.0,14.0,-999,-99.99,,,-99.99,,2013-04-15 06:02:00,
2013-04-15 02:12:00,44.0,-99.9,30.20,NNW,330,8.0,12.0,-999,-99.99,,,-99.99,,2013-04-15 06:12:00,
2013-04-15 02:23:00,44.0,-99.9,30.21,NNW,328,9.0,14.0,-999,-99.99,,,-99.99,,2013-04-15 06:23:00,
2013-04-15 02:34:00,44.0,-99.9,30.21,NW,323,8.0,11.0,-999,-99.99,,,-99.99,,2013-04-15 06:34:00,
2013-04-15 02:42:00,44.0,-99.9,30.21,NW,326,9.0,13.0,-999,-99.99,,,-99.99,,2013-04-15 06:42:00,
2013-04-15 02:43:00,44.0,-99.9,30.21,NW,318,7.0,11.0,-999,-99.99,,,-99.99,,2013-04-15 06:43:00,
2013-04-15 02:53:00,44.0,-99.9,30.21,NW,323,8.0,11.0,-999,-99.99,,,-99.99,,2013-04-15 06:53:00,
2013-04-15 03:03:00,44.0,-99.9,30.21,NNW,328,8.0,15.0,-999,-99.99,,,-99.99,,2013-04-15 07:03:00,
2013-04-15 03:42:00,44.0,-99.9,30.22,NNW,336,9.0,13.0,-999,-99.99,,,-99.99,,2013-04-15 07:42:00,
2013-04-15 03:43:00,43.0,-99.9,30.22,NNW,334,10.0,12.0,-999,-99.99,,,-99.99,,2013-04-15 07:43:00,
2013-04-15 03:54:00,43.0,-99.9,30.22,NNW,333,9.0,13.0,-999,-99.99,,,-99.99,,2013-04-15 07:54:00,
2013-04-15 04:03:00,43.0,-99.9,30.23,NNW,333,9.0,14.0,-999,-99.99,,,-99.99,,2013-04-15 08:03:00,
2013-04-15 04:14:00,43.0,-99.9,30.23,NNW,340,8.0,11.0,-999,-99.99,,,-99.99,,2013-04-15 08:14:00,
2013-04-15 04:23:00,43.0,-99.9,30.23,NNW,343,6.0,10.0,-999,-99.99,,,-99.99,,2013-04-15 08:23:00,
2013-04-15 04:34:00,43.0,-99.9,30.24,NNW,343,9.0,13.0,-999,-99.99,,,-99.99,,2013-04-15 08:34:00,
2013-04-15 04:43:00,43.0,-99.9,30.24,North,349,8.0,12.0,-999,-99.99,,,-99.99,,2013-04-15 08:43:00,
2013-04-15 04:52:00,43.0,-99.9,30.24,North,356,11.0,13.0,-999,-99.99,,,-99.99,,2013-04-15 08:52:00,
2013-04-15 05:03:00,43.0,-99.9,30.24,North,359,11.0,16.0,-999,-99.99,,,-99.99,,2013-04-15 09:03:00,
2013-04-15 05:13:00,43.0,-99.9,30.23,North,3,12.0,17.0,-999,-99.99,,,-99.99,,2013-04-15 09:13:00,
2013-04-15 05:23:00,43.0,-99.9,30.24,North,6,10.0,14.0,-999,-99.99,,,-99.99,,2013-04-15 09:23:00,
2013-04-15 05:33:00,43.0,-99.9,30.24,North,7,11.0,18.0,-999,-99.99,,,-99.99,,2013-04-15 09:33:00,
2013-04-15 05:43:00,43.0,-99.9,30.24,North,3,11.0,18.0,-999,-99.99,,,-99.99,,2013-04-15 09:43:00,
2013-04-15 05:53:00,43.0,-99.9,30.25,North,5,10.0,16.0,-999,-99.99,,,-99.99,,2013-04-15 09:53:00,
2013-04-15 06:03:00,43.0,-99.9,30.26,North,6,7.0,15.0,-999,-99.99,,,-99.99,,2013-04-15 10:03:00,
2013-04-15 06:13:00,43.0,-99.9,30.27,North,5,9.0,15.0,-999,-99.99,,,-99.99,,2013-04-15 10:13:00,
2013-04-15 06:23:00,43.0,-99.9,30.28,North,6,8.0,11.0,-999,-99.99,,,-99.99,,2013-04-15 10:23:00,
2013-04-15 06:33:00,43.0,-99.9,30.29,NNE,15,6.0,11.0,-999,-99.99,,,-99.99,,2013-04-15 10:33:00,
2013-04-15 06:42:00,43.0,-99.9,30.29,North,10,4.0,10.0,-999,-99.99,,,-99.99,,2013-04-15 10:42:00,
2013-04-15 06:53:00,43.0,-99.9,30.30,NNE,21,3.0,10.0,-999,-99.99,,,-99.99,,2013-04-15 10:53:00,
2013-04-15 07:03:00,43.0,-99.9,30.31,NNE,14,6.0,9.0,-999,-99.99,,,-99.99,,2013-04-15 11:03:00,
2013-04-15 07:13:00,43.0,-99.9,30.31,NNE,14,5.0,10.0,-999,-99.99,,,-99.99,,2013-04-15 11:13:00,
2013-04-15 07:23:00,44.0,-99.9,30.32,NNE,13,4.0,10.0,-999,-99.99,,,-99.99,,2013-04-15 11:23:00,
2013-04-15 07:33:00,44.0,-99.9,30.33,NNE,16,5.0,10.0,-999,-99.99,,,-99.99,,2013-04-15 11:33:00,
2013-04-15 07:44:00,44.0,-99.9,30.33,NNE,17,5.0,9.0,-999,-99.99,,,-99.99,,2013-04-15 11:44:00,
2013-04-15 07:54:00,44.0,-99.9,30.34,NNE,21,5.0,8.0,-999,-99.99,,,-99.99,,2013-04-15 11:54:00,
2013-04-15 08:05:00,45.0,-99.9,30.35,NNE,24,6.0,8.0,-999,-99.99,,,-99.99,,2013-04-15 12:05:00,
2013-04-15 08:14:00,45.0,-99.9,30.35,NNE,23,5.0,9.0,-999,-99.99,,,-99.99,,2013-04-15 12:14:00,
2013-04-15 08:23:00,45.0,-99.9,30.35,NNE,22,6.0,10.0,-999,-99.99,,,-99.99,,2013-04-15 12:23:00,
2013-04-15 08:34:00,45.0,-99.9,30.35,NNE,33,7.0,9.0,-999,-99.99,,,-99.99,,2013-04-15 12:34:00,
2013-04-15 08:43:00,45.0,-99.9,30.35,NNE,30,7.0,9.0,-999,-99.99,,,-99.99,,2013-04-15 12:43:00,
2013-04-15 08:54:00,45.0,-99.9,30.34,NNE,26,7.0,11.0,-999,-99.99,,,-99.99,,2013-04-15 12:54:00,
2013-04-15 09:05:00,45.0,-99.9,30.34,NNE,30,7.0,11.0,-999,-99.99,,,-99.99,,2013-04-15 13:05:00,
2013-04-15 09:13:00,45.0,-99.9,30.34,NNE,28,8.0,10.0,-999,-99.99,,,-99.99,,2013-04-15 13:13:00,
2013-04-15 09:24:00,45.0,-99.9,30.35,NNE,22,5.0,10.0,-999,-99.99,,,-99.99,,2013-04-15 13:24:00,
2013-04-15 09:34:00,46.0,-99.9,30.36,NNE,18,5.0,7.0,-999,-99.99,,,-99.99,,2013-04-15 13:34:00,
2013-04-15 09:43:00,46.0,-99.9,30.36,NNE,22,3.0,6.0,-999,-99.99,,,-99.99,,2013-04-15 13:43:00,
2013-04-15 09:54:00,46.0,-99.9,30.37,NNE,20,5.0,7.0,-999,-99.99,,,-99.99,,2013-04-15 13:54:00,
2013-04-15 10:05:00,47.0,-99.9,30.37,NNE,19,4.0,7.0,-999,-99.99,,,-99.99,,2013-04-15 14:05:00,
2013-04-15 10:14:00,47.0,-99.9,30.37,NNE,13,5.0,8.0,-999,-99.99,,,-99.99,,2013-04-15 14:14:00,
2013-04-15 10:23:00,47.0,-99.9,30.38,NNE,19,4.0,8.0,-999,-99.99,,,-99.99,,2013-04-15 14:23:00,
2013-04-15 10:34:00,47.0,-99.9,30.38,NNE,19,4.0,8.0,-999,-99.99,,,-99.99,,2013-04-15 14:34:00,
2013-04-15 10:45:00,48.0,-99.9,30.38,NNE,21,4.0,8.0,-999,-99.99,,,-99.99,,2013-04-15 14:45:00,
2013-04-15 10:55:00,48.0,-99.9,30.38,NNE,24,4.0,8.0,-999,-99.99,,,-99.99,,2013-04-15 14:55:00,
2013-04-15 11:04:00,48.0,-99.9,30.37,NNE,15,5.0,9.0,-999,-99.99,,,-99.99,,2013-04-15 15:04:00,
2013-04-15 11:25:00,48.0,-99.9,30.38,NNE,32,6.0,9.0,-999,-99.99,,,-99.99,,2013-04-15 15:25:00,
2013-04-15 11:37:00,48.0,-99.9,30.38,NE,42,8.0,11.0,-999,-99.99,,,-99.99,,2013-04-15 15:37:00,
2013-04-15 11:45:00,48.0,-99.9,30.38,NE,41,6.0,11.0,-999,-99.99,,,-99.99,,2013-04-15 15:45:00,
2013-04-15 11:55:00,48.0,-99.9,30.37,NE,47,8.0,11.0,-999,-99.99,,,-99.99,,2013-04-15 15:55:00,
2013-04-15 12:05:00,48.0,-99.9,30.38,NE,39,8.0,12.0,-999,-99.99,,,-99.99,,2013-04-15 16:05:00,
2013-04-15 12:14:00,48.0,-99.9,30.38,NE,39,8.0,11.0,-999,-99.99,,,-99.99,,2013-04-15 16:14:00,
2013-04-15 12:34:00,48.0,-99.9,30.38,NE,41,8.0,11.0,-999,-99.99,,,-99.99,,2013-04-15 16:34:00,
2013-04-15 12:45:00,48.0,-99.9,30.39,NE,44,8.0,9.0,-999,-99.99,,,-99.99,,2013-04-15 16:45:00,
2013-04-15 12:54:00,48.0,-99.9,30.39,NE,36,8.0,11.0,-999,-99.99,,,-99.99,,2013-04-15 16:54:00,
2013-04-15 13:04:00,48.0,-99.9,30.38,NE,43,8.0,11.0,-999,-99.99,,,-99.99,,2013-04-15 17:04:00,
2013-04-15 13:15:00,48.0,-99.9,30.38,NE,40,7.0,12.0,-999,-99.99,,,-99.99,,2013-04-15 17:15:00,
2013-04-15 13:22:00,48.0,-99.9,30.39,NE,49,8.0,11.0,-999,-99.99,,,-99.99,,2013-04-15 17:22:00,
2013-04-15 13:33:00,49.0,-99.9,30.39,NE,34,5.0,9.0,-999,-99.99,,,-99.99,,2013-04-15 17:33:00,
2013-04-15 13:43:00,50.0,-99.9,30.39,South,180,4.0,7.0,-999,-99.99,,,-99.99,,2013-04-15 17:43:00,
2013-04-15 13:53:00,50.0,-99.9,30.39,SSE,161,8.0,12.0,-999,-99.99,,,-99.99,,2013-04-15 17:53:00,
2013-04-15 14:04:00,50.0,-99.9,30.39,SE,137,6.0,10.0,-999,-99.99,,,-99.99,,2013-04-15 18:04:00,
2013-04-15 14:13:00,49.0,-99.9,30.40,SE,141,6.0,11.0,-999,-99.99,,,-99.99,,2013-04-15 18:13:00,
2013-04-15 14:24:00,49.0,-99.9,30.40,SE,138,6.0,10.0,-999,-99.99,,,-99.99,,2013-04-15 18:24:00,
2013-04-15 14:33:00,48.0,-99.9,30.40,SE,134,8.0,11.0,-999,-99.99,,,-99.99,,2013-04-15 18:33:00,
2013-04-15 14:42:00,48.0,-99.9,30.39,SE,144,8.0,13.0,-999,-99.99,,,-99.99,,2013-04-15 18:42:00,
2013-04-15 14:52:00,49.0,-99.9,30.39,SE,129,8.0,11.0,-999,-99.99,,,-99.99,,2013-04-15 18:52:00,
2013-04-15 15:02:00,49.0,-99.9,30.39,SE,128,8.0,12.0,-999,-99.99,,,-99.99,,2013-04-15 19:02:00,
2013-04-15 15:12:00,49.0,-99.9,30.39,SE,138,6.0,10.0,-999,-99.99,,,-99.99,,2013-04-15 19:12:00,
2013-04-15 15:22:00,49.0,-99.9,30.39,SE,138,7.0,11.0,-999,-99.99,,,-99.99,,2013-04-15 19:22:00,
2013-04-15 15:39:00,48.0,-99.9,30.38,SE,133,8.0,11.0,-999,-99.99,,,-99.99,,2013-04-15 19:39:00,
2013-04-15 15:59:00,48.0,-99.9,30.38,SE,146,7.0,13.0,-999,-99.99,,,-99.99,,2013-04-15 19:59:00,
2013-04-15 16:02:00,48.0,-99.9,30.37,SSE,151,7.0,13.0,-999,-99.99,,,-99.99,,2013-04-15 20:02:00,
2013-04-15 16:12:00,48.0,-99.9,30.37,SE,138,8.0,11.0,-999,-99.99,,,-99.99,,2013-04-15 20:12:00,
2013-04-15 16:22:00,48.0,-99.9,30.37,SE,135,6.0,11.0,-999,-99.99,,,-99.99,,2013-04-15 20:22:00,
2013-04-15 16:32:00,48.0,-99.9,30.37,SE,141,6.0,11.0,-999,-99.99,,,-99.99,,2013-04-15 20:32:00,
2013-04-15 16:42:00,48.0,-99.9,30.37,SE,141,8.0,11.0,-999,-99.99,,,-99.99,,2013-04-15 20:42:00,
2013-04-15 16:52:00,48.0,-99.9,30.36,SE,128,9.0,12.0,-999,-99.99,,,-99.99,,2013-04-15 20:52:00,
2013-04-15 17:02:00,47.0,-99.9,30.36,SE,136,9.0,13.0,-999,-99.99,,,-99.99,,2013-04-15 21:02:00,
2013-04-15 17:12:00,48.0,-99.9,30.36,SE,136,8.0,13.0,-999,-99.99,,,-99.99,,2013-04-15 21:12:00,
2013-04-15 17:22:00,47.0,-99.9,30.36,SE,136,8.0,12.0,-999,-99.99,,,-99.99,,2013-04-15 21:22:00,
2013-04-15 17:33:00,47.0,-99.9,30.36,SE,136,7.0,11.0,-999,-99.99,,,-99.99,,2013-04-15 21:33:00,
2013-04-15 17:43:00,47.0,-99.9,30.37,SE,136,5.0,10.0,-999,-99.99,,,-99.99,,2013-04-15 21:43:00,
2013-04-15 17:53:00,47.0,-99.9,30.37,SE,136,5.0,9.0,-999,-99.99,,,-99.99,,2013-04-15 21:53:00,
2013-04-15 18:02:00,47.0,-99.9,30.37,SE,145,6.0,11.0,-999,-99.99,,,-99.99,,2013-04-15 22:02:00,
2013-04-15 18:13:00,47.0,-99.9,30.37,SE,134,6.0,11.0,-999,-99.99,,,-99.99,,2013-04-15 22:13:00,
2013-04-15 18:23:00,47.0,-99.9,30.37,SSE,156,6.0,11.0,-999,-99.99,,,-99.99,,2013-04-15 22:23:00,
2013-04-15 18:33:00,47.0,-99.9,30.37,SSE,147,8.0,10.0,-999,-99.99,,,-99.99,,2013-04-15 22:33:00,
2013-04-15 18:42:00,47.0,-99.9,30.37,SSE,152,6.0,11.0,-999,-99.99,,,-99.99,,2013-04-15 22:42:00,
2013-04-15 18:52:00,46.0,-99.9,30.37,SE,145,6.0,12.0,-999,-99.99,,,-99.99,,2013-04-15 22:52:00,
2013-04-15 19:02:00,46.0,-99.9,30.37,SSE,161,6.0,9.0,-999,-99.99,,,-99.99,,2013-04-15 23:02:00,
2013-04-15 19:12:00,46.0,-99.9,30.37,SSE,157,5.0,9.0,-999,-99.99,,,-99.99,,2013-04-15 23:12:00,
2013-04-15 19:22:00,45.0,-99.9,30.37,SE,142,6.0,10.0,-999,-99.99,,,-99.99,,2013-04-15 23:22:00,
2013-04-15 19:32:00,45.0,-99.9,30.37,SE,133,6.0,9.0,-999,-99.99,,,-99.99,,2013-04-15 23:32:00,
2013-04-15 19:42:00,45.0,-99.9,30.37,SE,134,5.0,7.0,-999,-99.99,,,-99.99,,2013-04-15 23:42:00,
2013-04-15 19:52:00,45.0,-99.9,30.38,SE,124,5.0,7.0,-999,-99.99,,,-99.99,,2013-04-15 23:52:00,
2013-04-15 20:03:00,44.0,-99.9,30.38,ESE,123,3.0,6.0,-999,-99.99,,,-99.99,,2013-04-16 00:03:00,
2013-04-15 20:12:00,44.0,-99.9,30.39,ESE,115,4.0,6.0,-999,-99.99,,,-99.99,,2013-04-16 00:12:00,
2013-04-15 20:22:00,44.0,-99.9,30.39,ESE,116,4.0,6.0,-999,-99.99,,,-99.99,,2013-04-16 00:22:00,
2013-04-15 20:32:00,43.0,-99.9,30.40,SE,129,3.0,6.0,-999,-99.99,,,-99.99,,2013-04-16 00:32:00,
2013-04-15 20:42:00,43.0,-99.9,30.40,SE,133,4.0,5.0,-999,-99.99,,,-99.99,,2013-04-16 00:42:00,
2013-04-15 20:52:00,43.0,-99.9,30.41,South,171,2.0,3.0,-999,-99.99,,,-99.99,,2013-04-16 00:52:00,
2013-04-15 21:02:00,43.0,-99.9,30.42,SSE,163,2.0,3.0,-999,-99.99,,,-99.99,,2013-04-16 01:02:00,
2013-04-15 21:12:00,42.0,-99.9,30.43,SE,134,2.0,4.0,-999,-99.99,,,-99.99,,2013-04-16 01:12:00,
2013-04-15 21:22:00,42.0,-99.9,30.43,SSE,151,2.0,4.0,-999,-99.99,,,-99.99,,2013-04-16 01:22:00,
2013-04-15 21:32:00,42.0,-99.9,30.44,SE,145,2.0,5.0,-999,-99.99,,,-99.99,,2013-04-16 01:32:00,
2013-04-15 21:42:00,42.0,-99.9,30.44,SE,143,2.0,4.0,-999,-99.99,,,-99.99,,2013-04-16 01:42:00,
2013-04-15 21:52:00,42.0,-99.9,30.44,SE,139,3.0,5.0,-999,-99.99,,,-99.99,,2013-04-16 01:52:00,
2013-04-15 22:02:00,42.0,-99.9,30.43,SSE,148,2.0,4.0,-999,-99.99,,,-99.99,,2013-04-16 02:02:00,
2013-04-15 22:12:00,42.0,-99.9,30.43,South,173,3.0,5.0,-999,-99.99,,,-99.99,,2013-04-16 02:12:00,
2013-04-15 22:22:00,42.0,-99.9,30.42,SSE,149,2.0,5.0,-999,-99.99,,,-99.99,,2013-04-16 02:22:00,
2013-04-15 22:32:00,42.0,-99.9,30.42,SSE,147,4.0,6.0,-999,-99.99,,,-99.99,,2013-04-16 02:32:00,
2013-04-15 22:42:00,42.0,-99.9,30.42,SE,138,5.0,7.0,-999,-99.99,,,-99.99,,2013-04-16 02:42:00,
2013-04-15 22:52:00,42.0,-99.9,30.42,SE,141,4.0,8.0,-999,-99.99,,,-99.99,,2013-04-16 02:52:00,
2013-04-15 23:02:00,42.0,-99.9,30.42,SSE,147,4.0,6.0,-999,-99.99,,,-99.99,,2013-04-16 03:02:00,
2013-04-15 23:12:00,42.0,-99.9,30.42,SSE,148,3.0,6.0,-999,-99.99,,,-99.99,,2013-04-16 03:12:00,
2013-04-15 23:22:00,42.0,-99.9,30.41,SE,143,4.0,6.0,-999,-99.99,,,-99.99,,2013-04-16 03:22:00,
2013-04-15 23:33:00,42.0,-99.9,30.42,SSE,156,2.0,6.0,-999,-99.99,,,-99.99,,2013-04-16 03:33:00,
2013-04-15 23:43:00,42.0,-99.9,30.42,SSE,154,3.0,6.0,-999,-99.99,,,-99.99,,2013-04-16 03:43:00,
2013-04-15 23:53:00,42.0,-99.9,30.42,SE,146,4.0,7.0,-999,-99.99,,,-99.99,,2013-04-16 03:53:00,